7 * 24
多渠道服务支持
COSMOS 1970是1988年9月16日独联体发射的GLONASS(全球导航卫星系统)组网卫星,GLONASS是苏联主导构建的全球第二个卫星导航系统,为苏联及后续俄罗斯提供全球定位、测速与授时服务。该卫星属于第一代GLONASS卫星,入轨后参与构建格洛纳斯空间星座,在中圆地球轨道服役,助力系统完成全球导航覆盖能力建设,是GLONASS早期建设阶段的重要组成卫星。
俄罗斯(独联体)
(CIS)
| 数据来源 | 国际轨道数据 |
| 星历时间: | 2026-08-30T18:37:20+0800 轨道信息已过期12天 |
| 半长轴: | 25508.017km |
| 偏心率: | 0.0008508 |
| 轨道倾角: | 65.194° |
| 近地点辐角 | 37.386° |
| 升交点赤经 | 311.947° |
| 平近点角 | 322.665° |
| 近地点: | 19108.177km |
| 远地点: | 19151.583km |
| 周期: | 675.732分钟 |
| 每日圈数: | 2.131021 |